Theta_e
313 314 314 314 314 314 314 314 314 313 313 313 313 312 308 309 305 292 290 299 306 314 312 296 296 295 300 299 300 304 296 291 292 293 294 288 289 288 288 288 288 289 289 292 293
312 313 313 314 314 314 314 314 313 313 312 312 313 312 309 307 291 288 300 310 312 312 296 293 297 299 293 295 293 298 295 294 292 291 289 287 287 286 286 286 286 287 289 291 293
311 312 312 313 313 313 313 313 313 313 312 312 312 312 312 302 289 287 306 310 311 305 296 294 295 296 292 291 289 290 294 289 287 286 287 286 285 287 284 283 285 285 287 289 291
310 310 311 312 312 313 313 313 313 313 312 311 312 313 312 291 284 290 306 307 306 296 294 293 293 292 290 290 288 288 286 286 286 286 285 284 286 285 283 286 287 287 287 289 290
308 309 310 311 311 312 312 312 313 313 312 311 312 310 294 286 286 292 303 298 294 293 291 291 290 290 288 286 287 286 284 284 284 284 283 285 283 283 283 285 287 286 287 288 288
308 308 309 310 311 311 312 312 312 312 312 310 311 308 287 283 291 291 292 293 292 291 289 289 289 289 285 283 285 283 283 283 283 283 284 282 282 283 284 285 285 285 285 286 288
309 308 309 310 310 311 311 311 311 312 312 310 311 291 286 283 289 291 291 291 292 290 288 288 288 287 285 282 283 284 281 282 281 282 282 282 282 281 283 283 284 284 284 285 286
309 309 309 309 310 310 311 309 311 311 310 310 304 287 282 289 290 291 291 290 292 292 291 290 289 286 284 283 282 280 280 278 280 282 282 282 282 283 284 283 283 283 283 284 286
309 309 309 309 310 310 309 307 308 305 304 308 290 285 281 295 289 290 289 289 290 291 291 292 288 283 283 279 278 278 276 276 279 281 281 281 281 284 283 282 283 283 283 284 285
309 309 309 309 309 308 306 303 306 298 294 291 290 285 286 284 288 290 289 290 289 288 289 287 283 280 279 278 277 277 276 277 277 279 279 279 280 284 284 282 283 283 283 283 284
310 310 309 309 309 305 293 287 286 285 286 282 282 283 285 289 290 288 290 289 289 287 281 283 281 278 277 277 277 277 276 276 277 279 279 278 278 283 284 282 283 283 283 283 284
310 309 309 309 307 302 290 286 285 286 280 284 285 284 286 288 284 287 291 285 285 280 281 280 278 279 281 280 279 279 277 277 279 279 279 278 279 284 284 282 283 285 283 284 284
310 309 308 307 303 292 288 287 292 289 279 282 284 283 284 286 282 284 288 284 282 280 278 278 278 281 280 279 279 277 277 276 277 278 277 276 279 282 282 281 282 282 283 282 284
310 309 308 304 293 288 286 291 292 289 274 280 281 282 285 285 281 287 287 284 281 278 278 278 279 280 279 278 279 278 278 278 278 277 276 276 276 281 280 281 282 283 283 282 282
310 308 307 299 287 286 289 292 291 288 271 281 280 286 285 281 281 283 286 284 280 280 279 278 277 278 278 279 279 278 279 278 277 275 275 275 274 279 279 282 283 284 284 283 283
310 308 304 294 289 289 291 290 288 279 271 276 280 280 280 281 280 282 283 285 282 280 279 278 279 279 278 279 279 280 278 278 276 275 271 272 274 278 281 281 282 283 284 284 284
310 307 299 294 287 291 290 286 278 273 279 275 275 279 278 278 279 279 279 278 277 274 274 277 277 277 279 277 279 279 276 273 272 270 273 272 272 279 282 283 282 283 284 284 284
310 303 299 296 293 290 287 282 270 273 273 278 278 278 277 277 277 277 276 274 277 277 270 273 273 276 278 276 276 276 275 273 269 270 272 274 273 280 282 282 282 283 283 283 283
307 296 294 294 292 288 285 271 278 276 280 278 277 274 271 277 276 276 274 273 278 278 276 271 273 276 278 277 277 275 273 275 270 266 269 273 277 282 282 282 283 283 283 283 283
300 295 295 294 290 286 284 283 276 282 280 278 277 276 269 271 273 274 274 278 278 279 275 276 272 276 277 277 277 276 278 273 271 267 265 272 273 278 282 282 282 282 283 284 284
298 291 294 292 288 284 283 283 279 281 280 279 278 273 275 272 272 269 274 277 278 278 277 270 275 273 275 272 273 273 272 271 271 272 269 267 274 279 281 282 283 284 283 283 283
295 286 292 289 284 282 281 280 284 280 280 279 278 279 277 275 272 270 273 277 279 279 277 277 272 269 271 274 275 275 274 275 272 269 268 271 272 281 282 282 281 282 283 283 283
289 289 293 291 284 280 282 281 281 280 279 279 278 279 278 277 274 275 275 278 279 279 276 276 270 265 270 271 273 269 274 276 273 272 267 270 275 281 280 281 282 281 283 284 284
290 285 285 285 285 286 285 283 283 281 281 280 279 279 278 276 277 273 277 279 280 279 284 281 272 273 273 274 271 267 268 273 271 266 270 273 277 282 285 286 284 283 282 283 283
291 286 286 279 282 285 287 287 286 284 279 279 277 278 277 274 275 274 276 276 278 281 280 276 269 268 269 272 269 269 267 271 272 276 273 279 276 281 284 286 284 282 281 281 281
287 286 285 285 285 284 286 287 288 288 280 278 278 278 279 282 282 276 278 276 277 277 277 274 268 266 266 272 272 270 273 272 275 276 275 277 276 284 286 286 285 285 283 282 282
293 292 287 288 284 283 285 286 288 290 287 291 282 282 279 281 286 287 283 282 282 278 277 272 268 267 268 271 271 270 273 272 274 275 278 275 281 286 285 285 284 282 282 282 283
Wind_Speed
17 17 17 16 15 15 14 13 13 11 10 11 10 9 7 6 4 6 6 5 9 16 11 3 0 1 1 4 4 3 5 3 7 7 4 2 4 1 2 2 0 2 3 4 5
17 17 17 17 17 16 16 15 13 11 11 10 9 8 7 5 4 7 2 14 13 11 4 5 3 2 4 3 4 4 4 7 3 3 4 4 3 5 3 2 3 2 3 3 3
18 18 18 18 18 17 16 16 15 13 11 10 8 8 7 3 3 3 14 18 15 5 3 0 1 2 5 4 4 2 3 5 3 2 3 4 2 2 5 5 8 10 8 7 5
18 18 18 18 19 19 17 17 16 14 11 10 11 11 6 1 1 3 19 17 11 3 4 2 4 4 4 4 3 5 3 3 2 1 2 2 1 3 6 5 3 8 7 6 7
17 17 18 19 19 19 18 16 16 14 12 10 11 6 2 6 2 7 17 12 2 3 5 2 4 3 5 3 2 5 2 4 3 4 2 1 3 5 9 10 3 6 7 8 7
16 17 17 18 19 19 18 17 16 13 11 8 8 6 2 4 3 7 9 5 5 4 4 6 4 4 7 4 4 2 4 4 3 3 1 0 2 3 6 6 8 7 9 8 9
16 17 18 18 19 20 19 19 15 12 9 7 6 1 6 3 2 7 8 3 4 2 4 2 3 5 5 5 4 4 3 1 4 4 1 2 6 12 4 3 9 9 9 9 10
17 18 18 19 20 20 19 18 13 7 7 5 1 2 3 1 1 5 8 3 7 5 5 3 6 9 5 3 6 5 5 1 0 5 1 1 10 2 2 7 10 10 9 9 9
16 17 19 21 21 20 19 14 8 5 3 1 1 0 1 2 4 4 5 3 5 3 5 3 6 5 3 5 5 6 2 4 2 3 4 3 9 4 4 7 10 11 11 10 9
16 17 18 20 21 19 16 4 4 3 5 2 1 3 5 2 5 4 3 2 5 0 3 8 6 4 4 4 5 5 3 3 4 2 2 4 17 15 9 8 13 13 12 11 11
17 18 20 21 21 19 8 4 7 3 10 1 0 1 2 5 2 4 4 3 1 8 3 5 5 2 1 0 2 4 3 3 2 2 3 6 10 21 9 9 15 14 13 13 15
17 19 21 21 16 14 5 7 2 2 5 2 1 3 2 1 0 3 4 2 3 3 2 5 2 3 2 1 3 2 2 3 3 2 1 4 17 22 9 9 11 15 12 15 10
16 18 20 22 4 7 5 4 1 3 1 2 0 1 2 2 3 4 4 2 5 4 3 5 4 3 3 2 2 1 1 0 2 6 0 7 9 8 2 3 5 8 7 7 14
13 17 22 21 6 2 4 1 1 3 7 4 0 1 1 1 2 1 2 3 5 5 4 5 3 3 2 2 1 2 2 2 3 5 4 5 8 10 4 9 6 8 8 8 8
10 13 16 14 2 4 2 4 2 2 5 1 2 1 2 1 1 2 1 2 6 5 4 3 5 3 2 2 1 3 2 3 1 3 3 2 1 12 4 6 5 5 7 6 5
6 9 12 4 3 1 2 2 2 10 9 4 3 3 2 4 2 4 1 7 4 4 5 4 1 1 3 2 3 6 4 3 3 2 2 1 3 9 4 3 5 4 3 3 3
4 3 3 1 3 1 1 3 8 6 2 6 2 3 1 1 1 3 1 2 4 6 1 2 2 1 1 4 2 1 3 4 6 4 5 0 1 14 6 5 3 3 4 3 5
5 2 2 3 2 1 3 8 4 4 7 1 2 2 1 4 1 2 2 2 3 5 4 6 6 4 1 1 4 3 2 6 6 3 4 3 7 10 7 2 5 7 5 6 5
7 0 2 3 4 2 7 3 11 9 5 7 1 4 5 2 2 1 5 5 7 9 10 6 2 0 2 2 2 4 2 4 7 2 4 4 9 13 4 6 8 9 5 8 7
4 2 4 7 7 5 4 8 6 5 7 3 7 4 5 4 3 4 2 5 5 2 3 4 3 2 1 1 4 1 4 4 3 1 4 5 6 9 4 2 2 3 9 9 8
3 1 1 3 2 4 7 8 8 7 5 8 9 6 6 7 6 5 5 5 5 4 5 4 5 2 3 6 9 4 2 4 4 5 6 2 8 8 7 4 5 7 5 7 8
2 4 4 3 1 2 7 11 7 6 3 4 2 6 10 9 8 3 9 7 6 8 10 8 7 5 8 3 4 4 5 7 7 7 3 2 11 4 7 9 6 9 8 7 7
3 2 3 1 8 4 2 5 7 7 7 8 10 8 4 9 1 8 5 0 8 8 8 8 2 3 7 4 5 4 5 3 5 3 8 7 8 4 5 7 8 9 9 8 7
1 3 2 1 1 5 8 7 9 4 6 7 5 5 5 5 4 5 6 3 6 4 1 6 3 9 11 8 7 5 6 6 7 4 4 12 8 11 19 18 9 10 10 9 9
4 6 5 7 8 11 7 8 18 14 5 8 4 8 10 8 6 7 3 1 1 6 3 6 6 4 3 2 3 5 6 12 14 15 12 7 17 16 21 19 8 7 4 7 10
5 3 1 3 3 18 19 19 21 17 13 7 10 13 12 21 18 11 11 8 9 4 8 2 4 4 4 1 3 4 9 11 17 11 19 18 29 19 22 19 21 18 9 10 12
3 2 2 4 6 10 12 16 17 13 11 20 20 16 15 28 9 8 4 4 4 15 13 9 7 4 7 2 4 9 19 17 11 9 14 17 30 17 19 15 12 7 9 11 14
Wind_Direction
17 15 9 8 2 1 1 356 355 348 350 357 2 0 339 354 27 46 45 293 316 321 328 266 177 138 341 69 45 135 79 169 188 161 174 160 151 295 332 126 107 229 169 166 136
12 8 5 360 356 356 353 351 352 346 343 347 353 343 349 343 101 68 311 334 328 330 23 30 65 99 54 54 19 82 121 198 153 148 156 159 189 165 163 184 229 260 248 182 148
7 4 1 357 353 349 349 346 344 340 342 336 338 329 334 328 110 331 340 341 335 352 167 129 10 62 67 45 1 16 152 154 180 143 123 145 206 183 158 231 213 195 192 194 194
4 1 357 355 349 345 345 340 338 333 333 333 332 325 321 2 227 305 342 338 344 95 122 81 31 55 77 80 358 82 46 55 121 67 111 172 55 256 200 243 242 196 176 174 197
1 357 354 351 345 342 339 336 333 327 325 333 335 1 321 53 358 333 333 337 23 71 59 70 64 98 92 90 78 81 128 65 70 66 63 338 263 267 253 238 259 190 190 199 206
1 354 350 348 343 337 333 331 325 316 314 322 326 337 23 82 328 333 332 342 31 55 34 36 119 127 101 70 66 97 96 119 59 18 111 26 248 44 267 204 207 202 218 222 217
358 353 348 344 340 335 330 328 319 309 304 303 317 12 58 140 350 340 357 3 349 54 90 30 119 85 143 97 156 124 77 66 21 357 334 55 277 234 235 136 203 217 226 229 228
353 350 345 343 337 332 326 330 319 309 299 285 6 4 96 314 241 17 343 10 5 31 87 144 92 103 66 128 37 73 63 93 100 357 90 317 270 264 202 167 217 229 234 235 236
350 348 344 341 336 331 327 324 325 311 340 161 334 142 151 352 31 322 33 354 306 55 51 73 59 86 63 86 40 14 198 218 299 59 307 186 274 268 153 188 228 229 231 232 245
345 345 344 341 337 334 329 286 343 25 360 28 51 38 10 324 308 335 345 339 72 345 40 45 50 66 39 85 208 190 204 241 248 332 333 235 264 265 240 213 232 233 231 229 231
344 345 344 342 342 344 2 28 22 339 45 87 112 292 317 300 290 6 4 325 77 53 54 14 70 178 143 200 111 122 145 219 219 162 303 230 272 275 235 226 245 240 237 234 229
342 343 342 340 340 357 51 72 102 214 315 188 251 284 255 165 79 351 359 139 69 110 329 34 129 171 127 116 97 63 144 254 270 101 5 343 283 269 253 229 221 238 224 229 227
340 343 341 339 351 47 70 101 327 149 159 292 150 317 282 331 131 308 8 95 94 87 21 151 155 166 169 116 154 66 180 93 267 319 123 316 281 299 304 252 237 252 248 234 230
340 345 345 339 51 314 60 272 254 221 65 276 288 4 314 41 33 347 4 134 53 145 119 96 177 167 139 145 185 207 97 77 9 19 275 2 285 307 332 294 252 252 236 241 230
334 349 352 21 170 51 315 330 314 34 8 320 320 272 333 106 57 24 334 13 129 138 138 176 150 167 160 96 341 133 84 84 78 88 345 17 77 271 338 316 313 273 246 252 240
318 353 356 26 28 167 324 357 46 44 259 327 298 346 11 14 12 300 48 48 136 104 46 104 186 44 108 95 70 145 105 77 70 96 12 260 150 280 243 237 323 351 320 308 243
257 16 46 108 281 112 109 66 36 134 330 286 264 356 152 20 355 17 64 134 157 80 323 41 91 98 109 105 57 145 74 329 346 12 224 349 358 249 301 271 232 329 8 331 240
226 98 166 202 155 105 50 49 116 239 229 171 157 127 203 0 133 2 59 296 245 94 99 150 306 168 329 116 160 154 156 157 219 230 281 21 235 252 218 292 256 255 266 295 273
149 73 255 199 152 83 72 66 206 201 170 155 86 78 308 6 140 39 214 218 209 180 165 128 266 87 35 146 145 167 160 174 108 75 44 259 286 290 248 258 249 253 257 254 252
157 206 223 150 145 80 97 223 234 199 139 146 179 159 210 242 165 172 178 209 199 173 104 219 69 342 87 148 14 143 151 92 2 188 286 285 278 248 326 265 342 260 241 261 250
118 214 61 118 126 76 204 221 222 220 168 168 193 166 200 193 186 219 231 290 190 136 88 127 101 296 34 211 177 149 181 51 113 147 186 241 257 215 228 248 280 277 283 271 256
117 218 127 84 177 198 183 179 192 178 147 247 229 195 185 165 185 234 221 221 163 160 170 198 139 171 217 318 348 317 201 163 135 227 224 156 264 221 235 254 255 269 269 261 246
217 241 94 99 224 226 266 226 199 152 195 176 210 200 191 174 194 195 207 89 160 172 166 194 258 51 341 348 354 215 206 167 82 68 200 154 252 210 244 249 245 250 255 260 263
233 242 180 198 256 249 188 222 221 219 188 169 190 115 134 180 233 221 225 182 182 200 118 131 144 172 192 200 131 190 196 174 138 136 193 229 270 289 280 276 259 248 248 256 260
204 230 186 199 227 229 209 194 222 219 224 177 220 208 166 197 185 207 231 87 168 213 153 137 209 163 278 127 123 194 165 184 198 211 199 240 227 237 253 265 272 236 239 260 260
279 203 195 247 147 201 213 230 235 221 158 220 224 186 202 224 201 188 172 186 195 140 160 169 226 120 299 184 205 275 230 195 215 235 257 265 272 255 272 286 276 279 261 258 259
232 330 254 209 186 186 214 223 227 226 220 224 209 209 213 229 223 250 145 137 208 161 180 156 141 114 255 116 124 291 218 195 201 197 213 229 245 277 270 254 263 252 238 251 262